| time (UTC) | temp F | wind direction | speed MPH | gust MPH | rain 1hr in | rain 24hr in | rain mn in | humidity % | barometer mb |
| 20260504021404 | 61 | 148 | 2.0 | 5.0 | 0.00 | 0.00 | 0.00 | 29 | 1007.6 |
| 20260504020403 | 62 | 169 | 2.0 | 5.0 | 0.00 | 0.00 | 0.00 | 29 | 1007.6 |
| 20260504015404 | 62 | 171 | 1.0 | 8.0 | 0.00 | 0.00 | 0.00 | 29 | 1007.4 |
| 20260504014405 | 63 | 0 | 3.0 | 8.0 | 0.00 | 0.00 | 0.00 | 27 | 1007.3 |
| 20260504013404 | 64 | 0 | 2.0 | 10.0 | 0.00 | 0.00 | 0.00 | 27 | 1007.4 |
| 20260504012904 | 64 | 0 | 3.0 | 10.0 | 0.00 | 0.00 | 0.00 | 27 | 1007.4 |
| 20260504011904 | 64 | 0 | 5.0 | 8.0 | 0.00 | 0.00 | 0.00 | 26 | 1007.5 |
| 20260504011406 | 64 | 0 | 3.0 | 8.0 | 0.00 | 0.00 | 0.00 | 26 | 1007.5 |
| 20260504005404 | 65 | 198 | 2.0 | 8.0 | 0.00 | 0.00 | 0.00 | 25 | 1007.6 |
| 20260504002904 | 66 | 197 | 3.0 | 10.0 | 0.00 | 0.00 | 0.00 | 25 | 1007.7 |
| 20260504002404 | 66 | 183 | 5.0 | 10.0 | 0.00 | 0.00 | 0.00 | 25 | 1007.8 |
| 20260504001904 | 67 | 164 | 5.0 | 10.0 | 0.00 | 0.00 | 0.00 | 24 | 1007.7 |
| 20260504001404 | 67 | 157 | 5.0 | 10.0 | 0.00 | 0.00 | 0.00 | 25 | 1007.8 |
| 20260504000403 | 67 | 204 | 2.0 | 9.0 | 0.00 | 0.00 | 0.00 | 24 | 1007.9 |
| 20260503235905 | 67 | 155 | 3.0 | 12.0 | 0.00 | 0.00 | 0.00 | 24 | 1007.9 |
| 20260503235404 | 67 | 184 | 5.0 | 12.0 | 0.00 | 0.00 | 0.00 | 24 | 1008.0 |
| 20260503234904 | 67 | 148 | 6.0 | 12.0 | 0.00 | 0.00 | 0.00 | 24 | 1007.9 |
| 20260503234404 | 67 | 202 | 2.0 | 9.0 | 0.00 | 0.00 | 0.00 | 24 | 1007.9 |
| 20260503232904 | 68 | 199 | 4.0 | 12.0 | 0.00 | 0.00 | 0.00 | 24 | 1008.1 |
| 20260503230904 | 68 | 216 | 4.0 | 10.0 | 0.00 | 0.00 | 0.00 | 26 | 1008.3 |
| 20260503230404 | 68 | 148 | 2.0 | 10.0 | 0.00 | 0.00 | 0.00 | 25 | 1008.3 |
| 20260503225905 | 68 | 166 | 5.0 | 10.0 | 0.00 | 0.00 | 0.00 | 24 | 1008.5 |
| 20260503224904 | 68 | 177 | 3.0 | 7.0 | 0.00 | 0.00 | 0.00 | 25 | 1008.5 |
| 20260503223904 | 67 | 165 | 3.0 | 10.0 | 0.00 | 0.00 | 0.00 | 24 | 1008.6 |
| 20260503222904 | 69 | 133 | 6.0 | 10.0 | 0.00 | 0.00 | 0.00 | 22 | 1008.9 |
| 20260503221904 | 69 | 239 | 3.0 | 9.0 | 0.00 | 0.00 | 0.00 | 23 | 1009.0 |
| 20260503220404 | 68 | 175 | 3.0 | 7.0 | 0.00 | 0.00 | 0.00 | 26 | 1009.3 |
| 20260503215904 | 67 | 306 | 1.0 | 3.0 | 0.00 | 0.00 | 0.00 | 25 | 1009.2 |
| 20260503214404 | 65 | 280 | 0.0 | 9.0 | 0.00 | 0.00 | 0.00 | 25 | 1009.6 |
| 20260503213905 | 65 | 190 | 3.0 | 9.0 | 0.00 | 0.00 | 0.00 | 25 | 1009.8 |
| 20260503212904 | 66 | 308 | 2.0 | 7.0 | 0.00 | 0.00 | 0.00 | 26 | 1009.9 |
| 20260503210904 | 67 | 212 | 2.0 | 6.0 | 0.00 | 0.00 | 0.00 | 25 | 1010.6 |
| 20260503210404 | 67 | 3 | 2.0 | 10.0 | 0.00 | 0.00 | 0.00 | 25 | 1010.6 |
| 20260503204904 | 68 | 194 | 2.0 | 8.0 | 0.00 | 0.00 | 0.00 | 25 | 1010.7 |
| 20260503203904 | 67 | 269 | 3.0 | 10.0 | 0.00 | 0.00 | 0.00 | 25 | 1011.0 |
| 20260503202905 | 66 | 193 | 5.0 | 10.0 | 0.00 | 0.00 | 0.00 | 26 | 1011.3 |
| 20260503201904 | 68 | 170 | 4.0 | 12.0 | 0.00 | 0.00 | 0.00 | 24 | 1011.5 |
| 20260503200904 | 68 | 307 | 3.0 | 10.0 | 0.00 | 0.00 | 0.00 | 24 | 1011.6 |
| 20260503195404 | 68 | 226 | 1.0 | 12.0 | 0.00 | 0.00 | 0.00 | 24 | 1011.9 |
| 20260503194905 | 68 | 31 | 2.0 | 9.0 | 0.00 | 0.00 | 0.00 | 24 | 1011.8 |
| 20260503193904 | 68 | 246 | 2.0 | 7.0 | 0.00 | 0.00 | 0.00 | 23 | 1012.3 |
| 20260503193404 | 69 | 268 | 2.0 | 5.0 | 0.00 | 0.00 | 0.00 | 23 | 1012.3 |
| 20260503190904 | 67 | 203 | 2.0 | 5.0 | 0.00 | 0.00 | 0.00 | 25 | 1012.8 |
| 20260503183906 | 66 | 5 | 2.0 | 7.0 | 0.00 | 0.00 | 0.00 | 25 | 1013.5 |
| 20260503183405 | 66 | 285 | 2.0 | 7.0 | 0.00 | 0.00 | 0.00 | 23 | 1013.8 |
| 20260503182905 | 65 | 208 | 3.0 | 7.0 | 0.00 | 0.00 | 0.00 | 23 | 1013.8 |
| 20260503182404 | 65 | 218 | 2.0 | 7.0 | 0.00 | 0.00 | 0.00 | 26 | 1013.9 |
| 20260503181904 | 65 | 258 | 3.0 | 3.0 | 0.00 | 0.00 | 0.00 | 26 | 1014.1 |
| 20260503180404 | 64 | 220 | 2.0 | 3.0 | 0.00 | 0.00 | 0.00 | 27 | 1014.3 |
| 20260503175404 | 63 | 21 | 2.0 | 6.0 | 0.00 | 0.00 | 0.00 | 30 | 1014.6 |
| 20260503174904 | 63 | 168 | 1.0 | 7.0 | 0.00 | 0.00 | 0.00 | 30 | 1014.7 |
| 20260503174404 | 63 | 264 | 2.0 | 7.0 | 0.00 | 0.00 | 0.00 | 31 | 1014.8 |
| 20260503171904 | 62 | 222 | 2.0 | 7.0 | 0.00 | 0.00 | 0.00 | 35 | 1015.1 |
| 20260503171405 | 61 | 309 | 1.0 | 7.0 | 0.00 | 0.00 | 0.00 | 38 | 1015.1 |
| 20260503170904 | 61 | 225 | 3.0 | 7.0 | 0.00 | 0.00 | 0.00 | 35 | 1015.1 |
| 20260503090404 | 40 | 147 | 0.0 | 1.0 | 0.00 | 0.00 | 0.00 | 77 | 1017.6 |
| 20260503081404 | 42 | 146 | 1.0 | 3.0 | 0.00 | 0.00 | 0.00 | 75 | 1017.6 |
| 20260503080904 | 42 | 146 | 0.0 | 2.0 | 0.00 | 0.00 | 0.00 | 74 | 1017.6 |
| 20260503072904 | 44 | 146 | 1.0 | 3.0 | 0.00 | 0.00 | 0.00 | 70 | 1017.9 |
| 20260503072404 | 44 | 146 | 2.0 | 3.0 | 0.00 | 0.00 | 0.00 | 70 | 1017.9 |
| 20260503071903 | 45 | 147 | 1.0 | 3.0 | 0.00 | 0.00 | 0.00 | 70 | 1017.9 |
| 20260503070403 | 45 | 146 | 1.0 | 3.0 | 0.00 | 0.00 | 0.00 | 70 | 1017.9 |
| 20260503053405 | 48 | 141 | 3.0 | 7.0 | 0.00 | 0.00 | 0.00 | 64 | 1018.0 |
| 20260503052404 | 48 | 148 | 3.0 | 8.0 | 0.00 | 0.00 | 0.00 | 63 | 1018.0 |
| 20260503051904 | 48 | 141 | 2.0 | 5.0 | 0.00 | 0.00 | 0.00 | 63 | 1018.0 |
| 20260503050904 | 48 | 135 | 2.0 | 7.0 | 0.00 | 0.00 | 0.00 | 63 | 1017.9 |
| 20260503045904 | 49 | 135 | 2.0 | 6.0 | 0.00 | 0.00 | 0.00 | 61 | 1018.0 |
| 20260503044404 | 49 | 143 | 2.0 | 5.0 | 0.00 | 0.00 | 0.00 | 58 | 1017.8 |
| 20260503043904 | 49 | 140 | 3.0 | 5.0 | 0.00 | 0.00 | 0.00 | 57 | 1017.8 |
| 20260503043404 | 50 | 133 | 1.0 | 5.0 | 0.00 | 0.00 | 0.00 | 55 | 1017.8 |
| 20260503041904 | 51 | 136 | 2.0 | 9.0 | 0.00 | 0.00 | 0.00 | 54 | 1017.8 |
| 20260503040404 | 52 | 143 | 5.0 | 12.0 | 0.00 | 0.00 | 0.00 | 54 | 1017.6 |
| 20260503035404 | 52 | 144 | 9.0 | 13.0 | 0.00 | 0.00 | 0.00 | 52 | 1017.5 |
| 20260503034404 | 53 | 161 | 6.0 | 12.0 | 0.00 | 0.00 | 0.00 | 50 | 1017.5 |
| 20260503033903 | 53 | 148 | 3.0 | 10.0 | 0.00 | 0.00 | 0.00 | 48 | 1017.4 |
| 20260503032904 | 53 | 134 | 6.0 | 12.0 | 0.00 | 0.00 | 0.00 | 45 | 1017.2 |
| 20260503032404 | 52 | 143 | 5.0 | 10.0 | 0.00 | 0.00 | 0.00 | 44 | 1017.1 |
| 20260503031404 | 51 | 139 | 2.0 | 6.0 | 0.00 | 0.00 | 0.00 | 44 | 1016.9 |
| 20260503025404 | 52 | 150 | 0.0 | 1.0 | 0.00 | 0.00 | 0.00 | 41 | 1016.7 |
| 20260503024904 | 53 | 150 | 0.0 | 1.0 | 0.00 | 0.00 | 0.00 | 39 | 1016.6 |
| 20260503023904 | 54 | 150 | 0.0 | 1.0 | 0.00 | 0.00 | 0.00 | 40 | 1016.5 |
| 20260503022903 | 55 | 150 | 1.0 | 3.0 | 0.00 | 0.00 | 0.00 | 37 | 1016.5 |